• în România
  • Lista ţărilor
  • Pe 7 zile
  • Temperatura apei
  • Hartă satelitară
  • Meteo pe hartă
  • Widget-uri
  • user-avatar
    Intrare

    Meteo pe oră la Canberra

    Astăzi, 22 Ianuarie, Luni

    Timp Temperatura Precipitaţii Vânt Presiune Umiditate
    00:00 +25°C° 0 mm 1 m/s 705 mmHg 28%
    01:00 +25°C° 0 mm 1 m/s 705 mmHg 30%
    02:00 +24°C° 0 mm 1 m/s 705 mmHg 31%
    03:00 +23°C° 0 mm 1 m/s 705 mmHg 32%
    04:00 +23°C° 0 mm 1 m/s 705 mmHg 32%
    05:00 +24°C° 0 mm 1 m/s 705 mmHg 30%
    06:00 +25°C° 0 mm 1 m/s 705 mmHg 29%
    07:00 +27°C° 0 mm 1 m/s 706 mmHg 28%
    08:00 +29°C° 0 mm 2 m/s 706 mmHg 25%
    09:00 +33°C° 0 mm 3 m/s 706 mmHg 21%
    10:00 +34°C° 0 mm 4 m/s 707 mmHg 23%
    11:00 +35°C° 0 mm 4 m/s 707 mmHg 23%
    12:00 +35°C° 0 mm 4 m/s 707 mmHg 23%
    13:00 +36°C° 0 mm 4 m/s 707 mmHg 22%
    14:00 +35°C° 0 mm 4 m/s 707 mmHg 25%
    15:00 +34°C° 0 mm 4 m/s 706 mmHg 28%
    16:00 +33°C° 0 mm 4 m/s 706 mmHg 31%
    17:00 +30°C° 0 mm 4 m/s 706 mmHg 33%
    18:00 +29°C° 0 mm 4 m/s 706 mmHg 36%
    19:00 +27°C° 0 mm 3 m/s 706 mmHg 38%
    20:00 +27°C° 0 mm 3 m/s 706 mmHg 37%
    21:00 +27°C° 0 mm 2 m/s 706 mmHg 36%
    22:00 +27°C° 0 mm 1 m/s 707 mmHg 34%
    23:00 +27°C° 0 mm 1 m/s 706 mmHg 36%

    Mâine, 23 Ianuarie, Marţi

    Timp Temperatura Precipitaţii Vânt Presiune Umiditate
    00:00 +26°C° 0 mm 2 m/s 706 mmHg 37%
    01:00 +26°C° 0 mm 2 m/s 706 mmHg 38%
    02:00 +25°C° 0 mm 1 m/s 706 mmHg 40%
    03:00 +25°C° 0 mm 1 m/s 705 mmHg 41%
    04:00 +24°C° 0 mm 1 m/s 705 mmHg 43%
    05:00 +25°C° 0 mm 1 m/s 706 mmHg 42%
    06:00 +26°C° 0 mm 1 m/s 706 mmHg 42%
    07:00 +27°C° 0 mm 1 m/s 706 mmHg 42%
    08:00 +29°C° 0 mm 2 m/s 706 mmHg 36%
    09:00 +33°C° 0 mm 3 m/s 707 mmHg 30%
    10:00 +36°C° 0 mm 4 m/s 707 mmHg 24%
    11:00 +37°C° 0 mm 5 m/s 707 mmHg 21%
    12:00 +40°C° 0 mm 5 m/s 706 mmHg 19%
    13:00 +41°C° 0 mm 5 m/s 706 mmHg 16%
    14:00 +40°C° 0 mm 5 m/s 706 mmHg 18%
    15:00 +38°C° 0 mm 4 m/s 706 mmHg 19%
    16:00 +38°C° 0 mm 4 m/s 705 mmHg 21%
    17:00 +35°C° 0 mm 3 m/s 705 mmHg 28%
    18:00 +33°C° 0 mm 3 m/s 705 mmHg 35%
    19:00 +29°C° 0 mm 2 m/s 706 mmHg 42%
    20:00 +28°C° 0,1 mm 2 m/s 706 mmHg 51%
    21:00 +26°C° 0,1 mm 2 m/s 706 mmHg 60%
    22:00 +24°C° 0,1 mm 2 m/s 707 mmHg 68%
    23:00 +23°C° 0 mm 1 m/s 706 mmHg 72%

    Poimâine, 24 Ianuarie, Miercuri

    Timp Temperatura Precipitaţii Vânt Presiune Umiditate
    00:00 +23°C° 0 mm 1 m/s 706 mmHg 75%
    01:00 +22°C° 0 mm 1 m/s 706 mmHg 78%
    02:00 +22°C° 0,1 mm 1 m/s 706 mmHg 79%
    03:00 +21°C° 0,1 mm 1 m/s 705 mmHg 79%
    04:00 +21°C° 0,1 mm 1 m/s 705 mmHg 79%
    05:00 +22°C° 0,2 mm 1 m/s 706 mmHg 74%
    06:00 +23°C° 0,2 mm 1 m/s 706 mmHg 69%
    07:00 +25°C° 0,2 mm 1 m/s 707 mmHg 64%
    08:00 +27°C° 0 mm 2 m/s 707 mmHg 54%
    09:00 +29°C° 0 mm 3 m/s 707 mmHg 44%
    10:00 +33°C° 0 mm 4 m/s 708 mmHg 34%
    11:00 +33°C° 0 mm 4 m/s 707 mmHg 33%
    12:00 +34°C° 0 mm 3 m/s 707 mmHg 32%
    13:00 +34°C° 0 mm 3 m/s 707 mmHg 31%
    14:00 +34°C° 0 mm 3 m/s 706 mmHg 32%
    15:00 +34°C° 0 mm 2 m/s 706 mmHg 32%
    16:00 +32°C° 0 mm 2 m/s 705 mmHg 33%
    17:00 +31°C° 0,2 mm 2 m/s 705 mmHg 38%
    18:00 +29°C° 0,2 mm 2 m/s 705 mmHg 43%
    19:00 +27°C° 0,2 mm 2 m/s 705 mmHg 48%
    20:00 +26°C° 0,1 mm 1 m/s 706 mmHg 52%
    21:00 +25°C° 0,1 mm 1 m/s 706 mmHg 56%
    22:00 +24°C° 0,1 mm 1 m/s 707 mmHg 61%
    23:00 +24°C° 0,1 mm 1 m/s 706 mmHg 65%

    25 Ianuarie, Joi

    Timp Temperatura Precipitaţii Vânt Presiune Umiditate
    00:00 +23°C° 0,1 mm 1 m/s 706 mmHg 69%
    01:00 +23°C° 0,1 mm 1 m/s 706 mmHg 72%
    02:00 +22°C° 0 mm 1 m/s 706 mmHg 74%
    03:00 +22°C° 0 mm 1 m/s 706 mmHg 76%
    04:00 +22°C° 0 mm 1 m/s 706 mmHg 77%
    05:00 +23°C° 0,1 mm 1 m/s 706 mmHg 75%
    06:00 +23°C° 0,1 mm 1 m/s 706 mmHg 73%
    07:00 +24°C° 0,1 mm 1 m/s 707 mmHg 71%
    08:00 +27°C° 0 mm 1 m/s 707 mmHg 59%
    09:00 +30°C° 0 mm 1 m/s 708 mmHg 46%
    10:00 +34°C° 0 mm 2 m/s 708 mmHg 34%
    11:00 +35°C° 0 mm 2 m/s 707 mmHg 31%
    12:00 +36°C° 0 mm 2 m/s 707 mmHg 28%
    13:00 +38°C° 0 mm 2 m/s 707 mmHg 25%
    14:00 +36°C° 0 mm 2 m/s 706 mmHg 29%
    15:00 +35°C° 0 mm 2 m/s 706 mmHg 33%
    16:00 +32°C° 0 mm 1 m/s 706 mmHg 38%
    17:00 +31°C° 0 mm 2 m/s 706 mmHg 43%
    18:00 +30°C° 0 mm 2 m/s 706 mmHg 49%
    19:00 +28°C° 0 mm 2 m/s 706 mmHg 54%
    20:00 +27°C° 0 mm 2 m/s 706 mmHg 63%
    21:00 +25°C° 0 mm 2 m/s 706 mmHg 73%
    22:00 +23°C° 0 mm 1 m/s 707 mmHg 82%
    23:00 +23°C° 0,1 mm 1 m/s 707 mmHg 84%

    26 Ianuarie, Vineri

    Timp Temperatura Precipitaţii Vânt Presiune Umiditate
    00:00 +23°C° 0,1 mm 1 m/s 707 mmHg 86%
    01:00 +23°C° 0,1 mm 1 m/s 707 mmHg 89%
    02:00 +22°C° 0 mm 1 m/s 706 mmHg 89%
    03:00 +22°C° 0 mm 1 m/s 706 mmHg 90%
    04:00 +21°C° 0 mm 1 m/s 706 mmHg 91%
    05:00 +23°C° 0 mm 1 m/s 706 mmHg 85%
    06:00 +24°C° 0 mm 1 m/s 707 mmHg 78%
    07:00 +25°C° 0 mm 1 m/s 707 mmHg 72%
    08:00 +28°C° 0 mm 1 m/s 708 mmHg 60%
    09:00 +31°C° 0 mm 1 m/s 708 mmHg 49%
    10:00 +35°C° 0 mm 2 m/s 708 mmHg 37%
    11:00 +36°C° 0 mm 2 m/s 708 mmHg 33%
    12:00 +37°C° 0 mm 2 m/s 707 mmHg 30%
    13:00 +39°C° 0 mm 2 m/s 707 mmHg 27%
    14:00 +37°C° 0 mm 2 m/s 707 mmHg 31%
    15:00 +36°C° 0 mm 2 m/s 706 mmHg 35%
    16:00 +33°C° 0 mm 1 m/s 706 mmHg 39%
    17:00 +32°C° 0,5 mm 2 m/s 706 mmHg 47%
    18:00 +30°C° 0,5 mm 2 m/s 706 mmHg 54%
    19:00 +29°C° 0,5 mm 2 m/s 706 mmHg 62%
    20:00 +27°C° 1,1 mm 3 m/s 707 mmHg 67%
    21:00 +26°C° 1,1 mm 3 m/s 707 mmHg 73%
    22:00 +25°C° 1,1 mm 3 m/s 707 mmHg 79%
    23:00 +24°C° 0,2 mm 2 m/s 707 mmHg 82%

    27 Ianuarie, Sâmbătă

    Timp Temperatura Precipitaţii Vânt Presiune Umiditate
    00:00 +24°C° 0,2 mm 1 m/s 707 mmHg 85%
    01:00 +23°C° 0,2 mm 1 m/s 707 mmHg 89%
    02:00 +23°C° 0,2 mm 1 m/s 707 mmHg 89%
    03:00 +23°C° 0,2 mm 1 m/s 707 mmHg 89%
    04:00 +23°C° 0,2 mm 1 m/s 707 mmHg 89%
    05:00 +23°C° 0 mm 1 m/s 707 mmHg 87%
    06:00 +24°C° 0 mm 1 m/s 707 mmHg 84%
    07:00 +24°C° 0 mm 1 m/s 708 mmHg 82%
    08:00 +27°C° 0 mm 1 m/s 708 mmHg 70%
    09:00 +30°C° 0 mm 2 m/s 708 mmHg 58%
    10:00 +32°C° 0 mm 2 m/s 709 mmHg 47%
    11:00 +34°C° 0 mm 2 m/s 708 mmHg 44%
    12:00 +35°C° 0 mm 2 m/s 708 mmHg 41%
    13:00 +36°C° 0 mm 2 m/s 708 mmHg 38%
    14:00 +34°C° 4,4 mm 3 m/s 707 mmHg 48%
    15:00 +31°C° 4,4 mm 3 m/s 706 mmHg 59%
    16:00 +29°C° 4,4 mm 4 m/s 706 mmHg 69%
    17:00 +28°C° 1,6 mm 3 m/s 706 mmHg 73%
    18:00 +26°C° 1,6 mm 2 m/s 707 mmHg 77%
    19:00 +25°C° 1,6 mm 1 m/s 708 mmHg 80%
    20:00 +25°C° 0,4 mm 2 m/s 708 mmHg 83%
    21:00 +24°C° 0,4 mm 2 m/s 708 mmHg 85%
    22:00 +23°C° 0,4 mm 2 m/s 708 mmHg 88%
    23:00 +23°C° 0 mm 2 m/s 708 mmHg 89%
    Arată mai mult